Regional Weather Roundup
Issued by NWS

Current Version | Previous Version | Text Only | Print | Product List | Glossary On
Versions: 1 2 3 4 5 6 7 8 9 10 11 12 13 14 15 16 17 18 19 20 21 22 23 24 25 26 27 28 29 30 31 32 33 34 35 36 37 38 39 40 41 42 43 44 45 46 47 48 49 50
000
ASUS46 KPQR 181010
RWROR

OREGON REGIONAL WEATHER ROUNDUP
NATIONAL WEATHER SERVICE PORTLAND OR
300 AM PDT THU SEP 18 2014

NOTE: "FAIR" INDICATES FEW OR NO CLOUDS BELOW 12,000 FEET WITH
NO SIGNIFICANT WEATHER AND/OR OBSTRUCTIONS TO VISIBILITY.

ORZ001>013-181100-
NORTHWEST OREGON


CITY           SKY/WX    TMP DP  RH WIND       PRES   REMARKS
ASTORIA        CLOUDY    58  56  93 SW7       29.75S
NEWPORT        LGT RAIN  57  55  94 E5        29.78S
PORTLAND       MOCLDY    64  60  87 NW3       29.73F
VANCOUVER WA   MOCLDY    62  56  80 CALM      29.73S
SCAPPOOSE      CLOUDY    61  57  87 CALM      29.73S
HILLSBORO      CLOUDY    61  58  90 CALM      29.73S
AURORA         MOCLDY    61  56  83 CALM      29.74S
MCMINNVILLE    CLOUDY    62  57  83 W3        29.74S
SALEM          CLOUDY    62  56  80 CALM      29.73S
CORVALLIS      CLOUDY    61  55  82 NW6       29.75S
EUGENE         PTCLDY    56  53  90 S5        29.74F
$$

ORZ021-028-181100-
SOUTHWEST OREGON


CITY           SKY/WX    TMP DP  RH WIND       PRES   REMARKS
NORTH BEND     CLOUDY    57  57 100 CALM      29.75S
BROOKINGS      LGT RAIN  60  59  97 VRB6      29.74S FOG
ROSEBURG       PTCLDY    58  52  80 CALM      29.76S
SEXTON SUMMIT  LGT RAIN  53  49  86 S5        29.82S
MEDFORD        CLOUDY    62  55  77 NW3       29.74S
$$

ORZ009-041-181100-
COLUMBIA GORGE


CITY           SKY/WX    TMP DP  RH WIND       PRES   REMARKS
TROUTDALE      CLOUDY    61  56  83 CALM      29.72S
THE DALLES     CLOUDY    70  55  59 NW10      29.67S
$$

ORZ029>031-042>050-061>064-181100-
EASTERN OREGON


CITY           SKY/WX    TMP DP  RH WIND       PRES   REMARKS
REDMOND        CLOUDY    61  38  42 N3        29.78S
BEND           CLOUDY    63  41  45 S5        29.80F
KLAMATH FALLS  MOCLDY    52  42  69 SE5       29.85F
LAKEVIEW       MOCLDY    54  37  54 S7        29.91S
HERMISTON      PTCLDY    68  47  46 SW9       29.65R
PENDLETON      PTCLDY    62  38  40 SE9       29.69S
JOHN DAY       PTSUNNY   64  32  29 SW7       29.81R
MEACHAM        CLOUDY    45  35  68 CALM      29.79R
LA GRANDE      MOCLDY    61  36  39 N5        29.71F
BAKER CITY     CLOUDY    72  42  34 S16G28    29.76  HAZE
BURNS          CLOUDY    56  34  43 CALM      29.85R
ROME             N/A     74  34  23 S9        29.82S
ONTARIO        CLOUDY    72  44  36 SE7       29.70R
$$


USA.gov is the U.S. government's official web portal to all federal, state and local government web resources and services.